Location: Casilda
(33.0440°S, 61.1680°W)
Time: 14:18:31
(UTC-03:00)

ISS - Pass Details

Date: 22 July 2021
Orbit: 419 x 421 km, 51.6° (Epoch: 04 August)

Event Time Altitude Azimuth Distance (km) Brightness Sun altitude
Exits shadow 05:31:14 13° 97° (E) 1,360 -0.4 -31.4°
Drops below altitude 10° 05:31:45 10° 103° (ESE) 1,516 -0.1 -31.3°
Sets 05:34:11 0° 119° (ESE) 2,389 0.9 -30.8°
